sat.trackr.live / text

‹ back to catalog

STARLINK-36306

NORAD 68160 · 2026-049U

PAYLOAD ACTIVE UNKNOWN

§ Identity

Operator
Country
US
Launch date
2026-03-13
Launch site
AFWTR
Launch vehicle
Mass (kg)
RCS (m²)

Purposes: comms

External: N2YO · Heavens-Above · Gunter

§ Orbital elements

Epoch: 2026-09-20T00:08:36.258144Z

Period
93.91 min
Inclination
97.2851°
Eccentricity
0.0001668
Mean motion
15.33439467 rev/d
Perigee alt
464.4 km
Apogee alt
466.7 km
Semi-major
6,843.7 km
B*
5.1706e-4
RAAN
282.9414°
Arg perigee
98.4283°
Mean anomaly
261.7148°
Rev number
2,942

§ Raw data

STARLINK-363061 68160U 26049U   26263.00597521  .00016652  00000+0  51706-3 0  99912 68160  97.2851 282.9414 0001668  98.4283 261.7148 15.33439467 29421

JSON: /api/v1/satellites/68160 · /tle

For live sub-satellite position, see the globe view (requires WebGL).

§ Visibility from observer

Set your observer location to see the next 7 days of passes ≥ 10°. The values pass through the URL so the page stays shareable.

No JS? Fill the form by hand. The geolocation button needs JavaScript.